Le nostre stazioni meteo in Italia

Pubblicità
Il mio iltempo24.it
Trento, Italia (16023): Temperatura & dewpoint: 13.04.2019 17:00:00 - 19.04.2019 17:00:00 (CEST)Trento, Italia (16023): velocità del vento: 13.04.2019 17:00:00 - 19.04.2019 17:00:00 (CEST)Trento, Italia (16023): direzione del vento: 13.04.2019 17:00:00 - 19.04.2019 17:00:00 (CEST)Trento, Italia (16023): reduced air pressure: 13.04.2019 17:00:00 - 19.04.2019 17:00:00 (CEST)
Data & Tempo tt [°C] td [°C] ff [km/h] ff [kn] dd ppp [hPa]
19.04.2019 17:00:00 - - - - - -
19.04.2019 16:00:00 23,9 0,9 5 3 O 1026,2
19.04.2019 15:00:00 - - - - - -
19.04.2019 14:00:00 22,2 4,2 4 2 O 1027,6
19.04.2019 13:00:00 21,1 4,1 4 2 OSO 1028,5
19.04.2019 12:00:00 19,6 4,4 2 1 SSE 1029,4
19.04.2019 11:00:00 17,0 5,5 4 2 N 1030,3
19.04.2019 10:00:00 15,4 7,4 5 3 NE 1030,6
19.04.2019 09:00:00 12,6 7,8 0 0 N 1030,9
19.04.2019 08:00:00 9,7 6,6 0 0 N 1031,0
19.04.2019 07:00:00 8,9 5,4 0 0 N 1030,3
19.04.2019 06:00:00 9,2 5,5 0 0 N 1029,7
19.04.2019 05:00:00 10,4 6,1 0 0 N 1029,5
19.04.2019 04:00:00 11,2 7,5 0 0 N 1029,2
19.04.2019 03:00:00 11,4 6,7 0 0 N 1029,2
19.04.2019 02:00:00 12,0 4,6 0 0 N 1029,1
19.04.2019 01:00:00 12,6 3,7 0 0 N 1028,7
19.04.2019 00:00:00 14,9 4,2 11 6 S 1028,1
18.04.2019 23:00:00 16,1 4,4 8 4 SO 1027,3
18.04.2019 22:00:00 16,7 3,3 9 5 S 1026,5
18.04.2019 21:00:00 17,1 4,0 16 9 SE 1025,8
18.04.2019 20:00:00 18,0 4,1 9 5 SSE 1024,8
18.04.2019 19:00:00 18,5 4,6 18 10 SSO 1024,1
18.04.2019 18:00:00 19,4 4,3 13 7 S 1023,6
18.04.2019 17:00:00 19,9 3,5 16 9 S 1023,2
18.04.2019 16:00:00 - - - - - -
18.04.2019 15:00:00 21,8 2,4 15 8 S 1022,8
18.04.2019 14:00:00 19,6 3,6 18 10 S 1023,4
18.04.2019 13:00:00 20,3 5,4 13 7 SSE 1023,5
18.04.2019 12:00:00 18,9 4,2 2 1 S 1024,1
18.04.2019 11:00:00 17,3 5,5 2 1 NNE 1024,5
18.04.2019 10:00:00 15,3 6,2 9 5 NE 1025,2
18.04.2019 09:00:00 12,9 6,9 5 3 ENE 1025,4
18.04.2019 08:00:00 10,2 6,1 0 0 N 1025,2
18.04.2019 07:00:00 9,9 5,6 0 0 N 1024,7
18.04.2019 06:00:00 10,0 6,1 0 0 N 1024,6
18.04.2019 05:00:00 9,8 5,9 0 0 N 1024,4
18.04.2019 04:00:00 9,5 5,6 0 0 N 1024,4
18.04.2019 03:00:00 9,5 5,0 0 0 N 1024,1
18.04.2019 02:00:00 9,4 4,3 0 0 N 1024,0
18.04.2019 01:00:00 10,5 4,6 0 0 N 1023,6
18.04.2019 00:00:00 11,7 4,6 0 0 N 1022,7
17.04.2019 23:00:00 13,6 5,2 0 0 N 1022,1
17.04.2019 22:00:00 14,1 3,5 4 2 ESE 1021,3
17.04.2019 21:00:00 17,1 2,9 2 1 NNO 1020,1
17.04.2019 20:00:00 19,2 4,5 9 5 S 1019,0
17.04.2019 19:00:00 20,3 4,7 21 11 SSO 1018,3
17.04.2019 18:00:00 22,0 4,9 18 10 SSO 1017,9
17.04.2019 17:00:00 22,8 3,3 22 12 SSO 1017,5
17.04.2019 16:00:00 23,6 -2,9 18 10 S 1017,3
17.04.2019 15:00:00 22,7 2,7 8 4 S 1018,0
17.04.2019 14:00:00 19,9 4,3 4 2 SE 1018,9
17.04.2019 13:00:00 17,5 3,7 4 2 ESE 1020,1
17.04.2019 12:00:00 16,8 3,4 4 2 NNO 1021,1
17.04.2019 11:00:00 14,2 3,3 5 3 ONO 1021,7
17.04.2019 10:00:00 12,2 3,3 8 4 N 1022,4
17.04.2019 09:00:00 9,9 5,4 4 2 OSO 1022,7
17.04.2019 08:00:00 6,8 3,7 0 0 N 1022,9
17.04.2019 07:00:00 6,2 3,1 0 0 N 1022,7
17.04.2019 06:00:00 6,3 3,2 0 0 N 1022,4
17.04.2019 05:00:00 6,7 3,6 0 0 N 1022,3
17.04.2019 04:00:00 6,7 3,6 0 0 N 1022,2
17.04.2019 03:00:00 6,5 3,1 0 0 N 1022,1
17.04.2019 02:00:00 6,9 2,9 0 0 N 1021,8
17.04.2019 01:00:00 7,4 2,6 0 0 N 1021,5
17.04.2019 00:00:00 8,3 2,2 0 0 N 1021,2
16.04.2019 23:00:00 9,9 2,9 0 0 N 1020,8
16.04.2019 22:00:00 11,2 2,7 0 0 N 1020,3
16.04.2019 21:00:00 13,4 2,5 0 0 N 1019,5
16.04.2019 20:00:00 15,6 1,9 13 7 S 1018,6
16.04.2019 19:00:00 17,0 2,1 15 8 S 1018,2
16.04.2019 18:00:00 18,1 2,3 22 12 S 1017,6
16.04.2019 17:00:00 18,4 3,4 22 12 S 1017,5
16.04.2019 16:00:00 - - - - - -
16.04.2019 15:00:00 18,5 1,8 18 10 S 1017,6
16.04.2019 14:00:00 19,0 2,3 15 8 SSO 1017,9
16.04.2019 13:00:00 18,2 3,9 0 0 N 1018,5
16.04.2019 12:00:00 16,5 4,4 0 0 N 1019,4
16.04.2019 11:00:00 14,0 4,8 0 0 N 1020,3
16.04.2019 10:00:00 12,0 5,8 4 2 SE 1020,8
16.04.2019 09:00:00 8,8 7,1 0 0 N 1021,3
16.04.2019 08:00:00 5,5 3,8 0 0 N 1021,7
16.04.2019 07:00:00 4,8 2,8 0 0 N 1021,4
16.04.2019 06:00:00 4,9 2,6 0 0 N 1021,0
16.04.2019 05:00:00 5,6 3,2 0 0 N 1021,2
16.04.2019 04:00:00 6,3 3,8 0 0 N 1021,5
16.04.2019 03:00:00 6,6 4,1 0 0 N 1021,6
16.04.2019 02:00:00 6,3 3,2 0 0 N 1021,9
16.04.2019 01:00:00 6,8 3,4 0 0 N 1021,6
16.04.2019 00:00:00 7,5 3,3 0 0 N 1021,2
15.04.2019 23:00:00 8,2 3,2 0 0 N 1020,8
15.04.2019 22:00:00 9,5 3,4 0 0 N 1020,3
15.04.2019 21:00:00 11,1 2,8 0 0 N 1019,6
15.04.2019 20:00:00 14,1 2,9 0 0 N 1018,7
15.04.2019 19:00:00 15,0 4,0 13 7 SSO 1018,6
15.04.2019 18:00:00 15,5 4,4 15 8 SSO 1018,8
15.04.2019 17:00:00 16,4 3,7 21 11 S 1018,8
15.04.2019 16:00:00 15,7 5,5 16 9 SO 1019,2
15.04.2019 15:00:00 16,2 3,5 16 9 SO 1019,1
15.04.2019 14:00:00 16,2 1,4 0 0 N 1019,3
15.04.2019 13:00:00 17,7 3,1 0 0 N 1019,5
15.04.2019 12:00:00 15,3 3,0 15 8 NNE 1020,0
15.04.2019 11:00:00 13,0 2,4 18 10 NNE 1020,7
15.04.2019 10:00:00 10,9 3,4 13 7 NE 1021,1
15.04.2019 09:00:00 10,0 3,7 11 6 ENE 1021,3
15.04.2019 08:00:00 8,5 3,7 0 0 N 1021,0
15.04.2019 07:00:00 7,8 5,1 0 0 N 1020,2
15.04.2019 06:00:00 7,7 5,3 0 0 N 1019,7
15.04.2019 05:00:00 7,9 5,2 0 0 N 1019,2
15.04.2019 04:00:00 8,3 5,0 0 0 N 1018,9
15.04.2019 03:00:00 8,4 6,3 0 0 N 1018,6
15.04.2019 02:00:00 8,3 5,9 0 0 N 1018,5
15.04.2019 01:00:00 8,8 6,2 0 0 N 1018,5
15.04.2019 00:00:00 8,2 5,6 0 0 N 1017,9
14.04.2019 23:00:00 8,5 5,9 0 0 N 1017,1
14.04.2019 22:00:00 8,9 5,8 0 0 N 1016,7
14.04.2019 21:00:00 9,1 5,8 0 0 N 1015,7
14.04.2019 20:00:00 10,0 5,5 0 0 N 1014,4
14.04.2019 19:00:00 10,8 5,7 8 4 NNE 1013,7
14.04.2019 18:00:00 10,8 5,9 11 6 NNO 1013,6
14.04.2019 17:00:00 10,5 5,8 11 6 E 1013,8
14.04.2019 16:00:00 11,3 5,1 11 6 ONO 1013,6
14.04.2019 15:00:00 10,5 4,8 8 4 N 1013,7
14.04.2019 14:00:00 9,6 4,5 8 4 N 1013,9
14.04.2019 13:00:00 9,3 4,8 13 7 NNO 1013,9
14.04.2019 12:00:00 8,7 5,0 0 0 N 1014,1
14.04.2019 11:00:00 8,1 4,1 13 7 NE 1013,9
14.04.2019 10:00:00 8,0 4,2 9 5 N 1013,7
14.04.2019 09:00:00 8,5 4,3 9 5 N 1013,2
14.04.2019 08:00:00 8,8 3,8 18 10 N 1012,8
14.04.2019 07:00:00 9,0 4,2 0 0 N 1012,3
14.04.2019 06:00:00 9,1 4,7 2 1 SSO 1012,1
14.04.2019 05:00:00 9,1 5,6 0 0 N 1012,2
14.04.2019 04:00:00 9,1 5,4 0 0 N 1012,4
14.04.2019 03:00:00 9,1 5,0 0 0 N 1012,5
14.04.2019 02:00:00 9,3 4,7 0 0 N 1013,1
14.04.2019 01:00:00 10,2 4,7 8 4 SE 1013,7
14.04.2019 00:00:00 10,4 4,7 9 5 S 1013,7
13.04.2019 23:00:00 11,0 4,4 8 4 S 1013,7
13.04.2019 22:00:00 11,1 4,0 16 9 SSO 1014,0
13.04.2019 21:00:00 11,7 3,6 4 2 SE 1013,8
13.04.2019 20:00:00 11,7 4,1 13 7 S 1013,1
13.04.2019 19:00:00 - - - - - -
13.04.2019 18:00:00 12,9 4,0 34 18 SSO 1012,6
13.04.2019 17:00:00 13,4 3,4 24 13 E 1012,5

tt = Temperatura
td = dewpoint
ff = velocità del vento
dd = direzione del vento
ppp = reduced air pressure

Stazioni seguenti

WeatherPro
AMSI
MeteoEarth